| time (UTC) | temp F | wind direction | speed MPH | gust MPH | rain 1hr in | rain 24hr in | rain mn in | humidity % | barometer mb |
| 20260507182004 | 61 | 288 | 7.0 | 16.0 | 0.00 | 0.18 | 0.01 | 37 | 1006.3 |
| 20260507181504 | 61 | 285 | 7.0 | 15.0 | 0.00 | 0.18 | 0.01 | 37 | 1006.3 |
| 20260507181004 | 62 | 278 | 7.0 | 15.0 | 0.00 | 0.19 | 0.01 | 35 | 1006.3 |
| 20260507180504 | 61 | 292 | 7.0 | 15.0 | 0.00 | 0.19 | 0.01 | 36 | 1006.3 |
| 20260507180004 | 61 | 299 | 7.0 | 15.0 | 0.00 | 0.19 | 0.01 | 37 | 1006.4 |
| 20260507175525 | 61 | 305 | 6.0 | 13.0 | 0.00 | 0.19 | 0.01 | 37 | 1006.2 |
| 20260507175004 | 61 | 313 | 6.0 | 16.0 | 0.00 | 0.19 | 0.01 | 38 | 1006.2 |
| 20260507174525 | 61 | 310 | 7.0 | 16.0 | 0.00 | 0.19 | 0.01 | 37 | 1006.3 |
| 20260507174004 | 61 | 316 | 7.0 | 14.0 | 0.00 | 0.19 | 0.01 | 36 | 1006.1 |
| 20260507173525 | 61 | 311 | 8.0 | 18.0 | 0.00 | 0.19 | 0.01 | 35 | 1006.2 |
| 20260507173004 | 61 | 295 | 8.0 | 18.0 | 0.00 | 0.19 | 0.01 | 33 | 1006.1 |
| 20260507172504 | 61 | 279 | 8.0 | 16.0 | 0.00 | 0.19 | 0.01 | 39 | 1006.2 |
| 20260507172004 | 61 | 274 | 9.0 | 17.0 | 0.00 | 0.19 | 0.01 | 35 | 1006.1 |
| 20260507171525 | 61 | 282 | 8.0 | 17.0 | 0.00 | 0.19 | 0.01 | 36 | 1006.2 |
| 20260507171004 | 61 | 288 | 7.0 | 19.0 | 0.00 | 0.19 | 0.01 | 42 | 1006.2 |
| 20260507170504 | 61 | 302 | 6.0 | 19.0 | 0.00 | 0.19 | 0.01 | 37 | 1006.3 |
| 20260507170004 | 61 | 315 | 6.0 | 14.0 | 0.00 | 0.19 | 0.01 | 42 | 1006.2 |
| 20260507165504 | 61 | 302 | 6.0 | 14.0 | 0.00 | 0.19 | 0.01 | 41 | 1006.4 |
| 20260507165025 | 61 | 284 | 6.0 | 14.0 | 0.00 | 0.19 | 0.01 | 40 | 1006.5 |
| 20260507164525 | 62 | 276 | 3.0 | 12.0 | 0.00 | 0.19 | 0.01 | 41 | 1006.5 |
| 20260507164004 | 61 | 314 | 3.0 | 14.0 | 0.00 | 0.19 | 0.01 | 43 | 1006.6 |
| 20260507163504 | 60 | 300 | 6.0 | 18.0 | 0.00 | 0.19 | 0.01 | 42 | 1006.6 |
| 20260507163004 | 61 | 294 | 6.0 | 18.0 | 0.00 | 0.19 | 0.01 | 40 | 1006.7 |
| 20260507162504 | 60 | 296 | 6.0 | 14.0 | 0.00 | 0.19 | 0.01 | 40 | 1006.7 |
| 20260507162004 | 60 | 294 | 8.0 | 15.0 | 0.00 | 0.19 | 0.01 | 44 | 1006.8 |
| 20260507161504 | 60 | 286 | 7.0 | 15.0 | 0.00 | 0.19 | 0.01 | 43 | 1006.9 |
| 20260507161025 | 60 | 288 | 7.0 | 19.0 | 0.00 | 0.19 | 0.01 | 42 | 1006.9 |
| 20260507160525 | 59 | 280 | 9.0 | 26.0 | 0.00 | 0.19 | 0.01 | 43 | 1007.1 |
| 20260507160004 | 59 | 258 | 9.0 | 26.0 | 0.00 | 0.19 | 0.01 | 46 | 1007.1 |
| 20260507155504 | 59 | 276 | 10.0 | 20.0 | 0.00 | 0.19 | 0.01 | 47 | 1007.0 |
| 20260507155003 | 59 | 294 | 10.0 | 20.0 | 0.00 | 0.19 | 0.01 | 45 | 1007.1 |
| 20260507154504 | 59 | 284 | 9.0 | 19.0 | 0.00 | 0.19 | 0.01 | 46 | 1007.0 |
| 20260507154004 | 59 | 274 | 9.0 | 17.0 | 0.00 | 0.19 | 0.01 | 49 | 1007.0 |
| 20260507153504 | 58 | 274 | 9.0 | 18.0 | 0.00 | 0.19 | 0.01 | 46 | 1007.1 |
| 20260507153004 | 59 | 278 | 8.0 | 18.0 | 0.00 | 0.19 | 0.01 | 50 | 1007.3 |
| 20260507152525 | 58 | 280 | 7.0 | 17.0 | 0.00 | 0.19 | 0.01 | 53 | 1007.2 |
| 20260507152004 | 58 | 282 | 7.0 | 16.0 | 0.00 | 0.19 | 0.01 | 55 | 1007.4 |
| 20260507151504 | 58 | 279 | 6.0 | 16.0 | 0.00 | 0.19 | 0.01 | 60 | 1007.3 |
| 20260507151004 | 57 | 287 | 7.0 | 17.0 | 0.00 | 0.19 | 0.01 | 63 | 1007.3 |
| 20260507150504 | 57 | 293 | 6.0 | 17.0 | 0.00 | 0.19 | 0.01 | 57 | 1007.4 |
| 20260507150005 | 57 | 294 | 4.0 | 14.0 | 0.00 | 0.19 | 0.01 | 59 | 1007.4 |
| 20260507145504 | 58 | 276 | 4.0 | 14.0 | 0.00 | 0.19 | 0.01 | 63 | 1007.4 |
| 20260507145004 | 58 | 257 | 6.0 | 13.0 | 0.00 | 0.19 | 0.01 | 62 | 1007.4 |
| 20260507144525 | 58 | 267 | 7.0 | 13.0 | 0.00 | 0.19 | 0.01 | 58 | 1007.4 |
| 20260507144004 | 57 | 291 | 7.0 | 14.0 | 0.00 | 0.19 | 0.01 | 62 | 1007.5 |
| 20260507143525 | 57 | 288 | 6.0 | 14.0 | 0.00 | 0.19 | 0.01 | 60 | 1007.6 |
| 20260507143004 | 58 | 284 | 3.0 | 11.0 | 0.00 | 0.19 | 0.01 | 64 | 1007.4 |
| 20260507142504 | 58 | 283 | 5.0 | 12.0 | 0.00 | 0.19 | 0.01 | 63 | 1007.5 |
| 20260507142025 | 57 | 286 | 6.0 | 12.0 | 0.00 | 0.19 | 0.01 | 61 | 1007.5 |
| 20260507141504 | 57 | 286 | 5.0 | 12.0 | 0.00 | 0.19 | 0.01 | 65 | 1007.5 |
| 20260507141004 | 57 | 280 | 5.0 | 12.0 | 0.00 | 0.19 | 0.01 | 64 | 1007.3 |
| 20260507140504 | 57 | 282 | 3.0 | 12.0 | 0.00 | 0.19 | 0.01 | 63 | 1007.4 |
| 20260507140004 | 57 | 285 | 2.0 | 12.0 | 0.00 | 0.19 | 0.01 | 64 | 1007.4 |
| 20260507135504 | 56 | 274 | 3.0 | 11.0 | 0.00 | 0.19 | 0.01 | 67 | 1007.3 |
| 20260507135004 | 56 | 278 | 3.0 | 11.0 | 0.00 | 0.19 | 0.01 | 66 | 1007.3 |
| 20260507134504 | 56 | 287 | 2.0 | 9.0 | 0.00 | 0.19 | 0.01 | 67 | 1007.3 |
| 20260507134004 | 56 | 287 | 2.0 | 11.0 | 0.00 | 0.19 | 0.01 | 68 | 1007.3 |
| 20260507133504 | 57 | 288 | 1.0 | 11.0 | 0.00 | 0.19 | 0.01 | 67 | 1007.4 |
| 20260507133004 | 56 | 287 | 1.0 | 7.0 | 0.00 | 0.19 | 0.01 | 67 | 1007.5 |
| 20260507132525 | 56 | 286 | 1.0 | 7.0 | 0.00 | 0.19 | 0.01 | 66 | 1007.5 |
| 20260507132004 | 56 | 287 | 2.0 | 11.0 | 0.00 | 0.19 | 0.01 | 68 | 1007.6 |
| 20260507131504 | 55 | 288 | 3.0 | 11.0 | 0.00 | 0.19 | 0.01 | 68 | 1007.8 |
| 20260507131004 | 55 | 287 | 3.0 | 9.0 | 0.00 | 0.19 | 0.01 | 67 | 1007.9 |
| 20260507130504 | 55 | 284 | 2.0 | 9.0 | 0.00 | 0.19 | 0.01 | 69 | 1007.9 |
| 20260507130004 | 55 | 283 | 3.0 | 8.0 | 0.00 | 0.19 | 0.01 | 68 | 1007.8 |
| 20260507125504 | 55 | 280 | 3.0 | 11.0 | 0.00 | 0.19 | 0.01 | 70 | 1007.8 |
| 20260507125004 | 55 | 276 | 3.0 | 11.0 | 0.00 | 0.19 | 0.01 | 68 | 1007.9 |
| 20260507124504 | 54 | 277 | 5.0 | 11.0 | 0.00 | 0.19 | 0.01 | 73 | 1007.8 |
| 20260507124003 | 54 | 283 | 4.0 | 11.0 | 0.00 | 0.19 | 0.01 | 74 | 1007.8 |
| 20260507123503 | 54 | 282 | 2.0 | 9.0 | 0.00 | 0.19 | 0.01 | 74 | 1007.8 |
| 20260507123003 | 54 | 291 | 3.0 | 13.0 | 0.00 | 0.19 | 0.01 | 77 | 1007.9 |
| 20260507122503 | 53 | 292 | 3.0 | 13.0 | 0.00 | 0.19 | 0.01 | 75 | 1008.0 |
| 20260507122024 | 53 | 295 | 1.0 | 7.0 | 0.00 | 0.19 | 0.01 | 77 | 1008.1 |
| 20260507121524 | 53 | 297 | 0.0 | 5.0 | 0.01 | 0.19 | 0.01 | 78 | 1008.0 |
| 20260507121003 | 52 | 297 | 1.0 | 7.0 | 0.01 | 0.19 | 0.01 | 80 | 1008.0 |
| 20260507120503 | 52 | 297 | 1.0 | 7.0 | 0.01 | 0.19 | 0.01 | 79 | 1008.0 |
| 20260507120004 | 52 | 298 | 1.0 | 4.0 | 0.01 | 0.19 | 0.01 | 80 | 1008.1 |
| 20260507115503 | 51 | 298 | 0.0 | 4.0 | 0.01 | 0.19 | 0.01 | 81 | 1008.0 |
| 20260507115003 | 50 | 0 | 0.0 | 0.0 | 0.01 | 0.19 | 0.01 | 82 | 1007.9 |
| 20260507114503 | 50 | 0 | 0.0 | 0.0 | 0.01 | 0.19 | 0.01 | 82 | 1008.1 |
| 20260507114024 | 50 | 0 | 0.0 | 0.0 | 0.01 | 0.19 | 0.01 | 83 | 1008.0 |
| 20260507113503 | 50 | 0 | 0.0 | 0.0 | 0.01 | 0.19 | 0.01 | 83 | 1008.0 |
| 20260507113003 | 50 | 0 | 0.0 | 0.0 | 0.01 | 0.19 | 0.01 | 83 | 1007.9 |
| 20260507112503 | 50 | 0 | 0.0 | 0.0 | 0.01 | 0.19 | 0.01 | 83 | 1007.9 |
| 20260507112024 | 50 | 0 | 0.0 | 0.0 | 0.01 | 0.19 | 0.01 | 83 | 1007.9 |
| 20260507111504 | 50 | 0 | 0.0 | 0.0 | 0.00 | 0.18 | 0.00 | 84 | 1007.8 |
| 20260507111024 | 50 | 0 | 0.0 | 0.0 | 0.00 | 0.18 | 0.00 | 85 | 1007.9 |
| 20260507110503 | 50 | 0 | 0.0 | 0.0 | 0.00 | 0.18 | 0.00 | 83 | 1007.9 |
| 20260507110003 | 50 | 0 | 0.0 | 0.0 | 0.00 | 0.18 | 0.00 | 84 | 1007.9 |
| 20260507105503 | 50 | 0 | 0.0 | 0.0 | 0.00 | 0.18 | 0.00 | 83 | 1007.9 |
| 20260507105003 | 50 | 0 | 0.0 | 0.0 | 0.00 | 0.18 | 0.00 | 83 | 1007.6 |
| 20260507104504 | 50 | 0 | 0.0 | 0.0 | 0.00 | 0.18 | 0.00 | 83 | 1007.6 |
| 20260507104004 | 49 | 0 | 0.0 | 0.0 | 0.00 | 0.18 | 0.00 | 84 | 1007.5 |
| 20260507103524 | 49 | 0 | 0.0 | 0.0 | 0.00 | 0.18 | 0.00 | 84 | 1007.2 |
| 20260507103003 | 49 | 0 | 0.0 | 0.0 | 0.00 | 0.18 | 0.00 | 84 | 1007.2 |
| 20260507102503 | 49 | 0 | 0.0 | 0.0 | 0.00 | 0.18 | 0.00 | 85 | 1007.2 |
| 20260507102003 | 49 | 0 | 0.0 | 0.0 | 0.00 | 0.18 | 0.00 | 85 | 1007.2 |
| 20260507101503 | 49 | 0 | 0.0 | 0.0 | 0.00 | 0.18 | 0.00 | 85 | 1007.2 |
| 20260507101024 | 49 | 0 | 0.0 | 0.0 | 0.00 | 0.18 | 0.00 | 86 | 1007.1 |
| 20260507100503 | 49 | 0 | 0.0 | 0.0 | 0.00 | 0.18 | 0.00 | 86 | 1007.4 |
| 20260507100024 | 49 | 0 | 0.0 | 0.0 | 0.00 | 0.18 | 0.00 | 86 | 1007.1 |
| 20260507095503 | 49 | 0 | 0.0 | 0.0 | 0.00 | 0.18 | 0.00 | 86 | 1007.0 |
| 20260507095003 | 49 | 292 | 0.0 | 5.0 | 0.00 | 0.18 | 0.00 | 86 | 1007.2 |
| 20260507094503 | 49 | 292 | 0.0 | 5.0 | 0.00 | 0.18 | 0.00 | 87 | 1007.2 |
| 20260507094004 | 49 | 0 | 0.0 | 0.0 | 0.00 | 0.18 | 0.00 | 87 | 1007.5 |
| 20260507093503 | 49 | 0 | 0.0 | 0.0 | 0.00 | 0.18 | 0.00 | 87 | 1007.4 |
| 20260507093004 | 49 | 0 | 0.0 | 0.0 | 0.00 | 0.18 | 0.00 | 87 | 1007.4 |
| 20260507092503 | 49 | 0 | 0.0 | 0.0 | 0.00 | 0.18 | 0.00 | 87 | 1007.5 |
| 20260507092003 | 49 | 0 | 0.0 | 0.0 | 0.00 | 0.18 | 0.00 | 87 | 1007.4 |
| 20260507091503 | 49 | 0 | 0.0 | 0.0 | 0.00 | 0.18 | 0.00 | 87 | 1007.4 |
| 20260507091003 | 49 | 0 | 0.0 | 0.0 | 0.00 | 0.18 | 0.00 | 87 | 1007.4 |
| 20260507090503 | 49 | 292 | 0.0 | 2.0 | 0.00 | 0.18 | 0.00 | 88 | 1007.6 |
| 20260507090025 | 49 | 292 | 0.0 | 3.0 | 0.00 | 0.18 | 0.00 | 88 | 1007.6 |
| 20260507085503 | 49 | 292 | 1.0 | 9.0 | 0.00 | 0.18 | 0.00 | 88 | 1007.5 |
| 20260507085003 | 49 | 292 | 2.0 | 11.0 | 0.00 | 0.18 | 0.00 | 88 | 1007.1 |
| 20260507084503 | 49 | 292 | 1.0 | 11.0 | 0.00 | 0.18 | 0.00 | 88 | 1007.1 |
| 20260507084024 | 49 | 292 | 0.0 | 7.0 | 0.00 | 0.18 | 0.00 | 88 | 1007.7 |
| 20260507083503 | 49 | 292 | 1.0 | 7.0 | 0.00 | 0.18 | 0.00 | 88 | 1007.2 |
| 20260507083003 | 50 | 292 | 0.0 | 4.0 | 0.00 | 0.18 | 0.00 | 88 | 1007.1 |
| 20260507082524 | 50 | 292 | 0.0 | 4.0 | 0.00 | 0.18 | 0.00 | 88 | 1007.1 |
| 20260507082003 | 50 | 292 | 0.0 | 4.0 | 0.00 | 0.18 | 0.00 | 88 | 1007.0 |
| 20260507081503 | 50 | 292 | 0.0 | 4.0 | 0.00 | 0.18 | 0.00 | 87 | 1007.0 |
| 20260507081003 | 50 | 292 | 1.0 | 5.0 | 0.00 | 0.18 | 0.00 | 87 | 1007.1 |
| 20260507080503 | 50 | 292 | 1.0 | 5.0 | 0.00 | 0.18 | 0.00 | 86 | 1006.9 |
| 20260507080003 | 51 | 291 | 1.0 | 8.0 | 0.00 | 0.18 | 0.00 | 85 | 1006.9 |
| 20260507075503 | 51 | 290 | 1.0 | 8.0 | 0.00 | 0.18 | 0.00 | 84 | 1006.9 |
| 20260507075003 | 51 | 290 | 0.0 | 5.0 | 0.00 | 0.18 | 0.00 | 84 | 1007.0 |
| 20260507074503 | 52 | 290 | 0.0 | 5.0 | 0.00 | 0.18 | 0.00 | 83 | 1007.0 |
| 20260507074003 | 52 | 290 | 1.0 | 9.0 | 0.00 | 0.18 | 0.00 | 83 | 1007.2 |
| 20260507073503 | 52 | 291 | 2.0 | 11.0 | 0.00 | 0.18 | 0.00 | 84 | 1007.3 |
| 20260507073004 | 52 | 294 | 3.0 | 11.0 | 0.00 | 0.18 | 0.00 | 84 | 1007.1 |
| 20260507072503 | 52 | 295 | 2.0 | 8.0 | 0.00 | 0.18 | 0.00 | 85 | 1007.0 |
| 20260507072024 | 52 | 296 | 1.0 | 7.0 | 0.00 | 0.18 | 0.00 | 84 | 1007.0 |
| 20260507071524 | 52 | 296 | 2.0 | 7.0 | 0.00 | 0.18 | 0.00 | 86 | 1006.6 |
| 20260507071003 | 52 | 296 | 1.0 | 7.0 | 0.00 | 0.18 | 0.00 | 85 | 1006.6 |
| 20260507070503 | 52 | 0 | 0.0 | 0.0 | 0.00 | 0.18 | 0.00 | 86 | 1006.5 |
| 20260507070005 | 52 | 296 | 1.0 | 5.0 | 0.00 | 0.18 | 0.00 | 85 | 1006.4 |
| 20260507065503 | 52 | 296 | 1.0 | 9.0 | 0.00 | 0.18 | 0.00 | 86 | 1006.8 |
| 20260507065003 | 52 | 296 | 0.0 | 9.0 | 0.00 | 0.18 | 0.00 | 86 | 1006.8 |
| 20260507064503 | 52 | 296 | 0.0 | 5.0 | 0.00 | 0.18 | 0.00 | 86 | 1006.4 |
| 20260507064003 | 52 | 296 | 0.0 | 5.0 | 0.00 | 0.18 | 0.00 | 86 | 1006.3 |
| 20260507063503 | 52 | 296 | 0.0 | 5.0 | 0.00 | 0.18 | 0.00 | 87 | 1006.4 |
| 20260507063004 | 53 | 0 | 0.0 | 0.0 | 0.00 | 0.18 | 0.00 | 87 | 1006.5 |
| 20260507062503 | 53 | 0 | 0.0 | 0.0 | 0.00 | 0.18 | 0.00 | 86 | 1006.4 |
| 20260507062003 | 53 | 0 | 0.0 | 0.0 | 0.00 | 0.18 | 0.00 | 86 | 1006.2 |
| 20260507061524 | 53 | 0 | 0.0 | 0.0 | 0.00 | 0.18 | 0.00 | 86 | 1006.3 |
| 20260507061003 | 53 | 0 | 0.0 | 0.0 | 0.00 | 0.18 | 0.00 | 86 | 1006.3 |
| 20260507060503 | 53 | 0 | 0.0 | 0.0 | 0.00 | 0.18 | 0.00 | 85 | 1006.3 |
| 20260507060003 | 53 | 0 | 0.0 | 0.0 | 0.00 | 0.18 | 0.00 | 85 | 1006.5 |
| 20260507055503 | 53 | 296 | 0.0 | 4.0 | 0.00 | 0.18 | 0.00 | 85 | 1006.4 |
| 20260507055003 | 53 | 296 | 0.0 | 8.0 | 0.00 | 0.18 | 0.00 | 84 | 1006.6 |
| 20260507054503 | 53 | 296 | 0.0 | 8.0 | 0.00 | 0.18 | 0.00 | 85 | 1006.8 |
| 20260507054003 | 53 | 296 | 1.0 | 7.0 | 0.00 | 0.18 | 0.00 | 86 | 1006.9 |
| 20260507053524 | 53 | 296 | 2.0 | 7.0 | 0.00 | 0.18 | 0.00 | 85 | 1007.0 |
| 20260507053004 | 53 | 297 | 2.0 | 8.0 | 0.00 | 0.18 | 0.00 | 86 | 1006.9 |
| 20260507052503 | 54 | 297 | 1.0 | 8.0 | 0.00 | 0.18 | 0.00 | 86 | 1006.9 |
| 20260507052003 | 54 | 0 | 0.0 | 0.0 | 0.00 | 0.18 | 0.00 | 87 | 1007.0 |
| 20260507051503 | 54 | 298 | 1.0 | 7.0 | 0.00 | 0.18 | 0.00 | 86 | 1006.7 |
| 20260507051003 | 54 | 298 | 2.0 | 8.0 | 0.00 | 0.18 | 0.00 | 86 | 1006.8 |
| 20260507050503 | 54 | 298 | 1.0 | 8.0 | 0.00 | 0.18 | 0.00 | 86 | 1006.9 |
| 20260507050003 | 54 | 298 | 0.0 | 7.0 | 0.00 | 0.18 | 0.00 | 87 | 1006.9 |
| 20260507045503 | 54 | 298 | 1.0 | 8.0 | 0.00 | 0.18 | 0.00 | 86 | 1006.8 |
| 20260507045003 | 54 | 298 | 1.0 | 8.0 | 0.01 | 0.18 | 0.00 | 85 | 1006.7 |
| 20260507044503 | 54 | 299 | 0.0 | 3.0 | 0.01 | 0.18 | 0.00 | 85 | 1006.4 |
| 20260507044003 | 55 | 299 | 0.0 | 4.0 | 0.01 | 0.18 | 0.00 | 86 | 1006.4 |
| 20260507043503 | 55 | 299 | 2.0 | 10.0 | 0.01 | 0.18 | 0.00 | 86 | 1006.7 |
| 20260507043024 | 55 | 299 | 2.0 | 10.0 | 0.01 | 0.18 | 0.00 | 85 | 1006.7 |
| 20260507042503 | 55 | 297 | 2.0 | 8.0 | 0.01 | 0.18 | 0.00 | 86 | 1006.6 |
| 20260507042003 | 55 | 295 | 2.0 | 10.0 | 0.01 | 0.18 | 0.00 | 86 | 1006.5 |
| 20260507041503 | 56 | 290 | 2.0 | 10.0 | 0.01 | 0.18 | 0.00 | 86 | 1006.7 |
| 20260507041003 | 56 | 288 | 1.0 | 8.0 | 0.01 | 0.18 | 0.00 | 89 | 1006.6 |
| 20260507040503 | 56 | 0 | 0.0 | 0.0 | 0.01 | 0.18 | 0.00 | 92 | 1006.7 |
| 20260507040004 | 57 | 0 | 0.0 | 0.0 | 0.01 | 0.18 | 0.00 | 91 | 1006.7 |
| 20260507035524 | 57 | 283 | 0.0 | 6.0 | 0.01 | 0.18 | 0.18 | 90 | 1006.6 |
| 20260507035003 | 57 | 283 | 1.0 | 9.0 | 0.00 | 0.17 | 0.17 | 90 | 1006.5 |
| 20260507034503 | 57 | 283 | 1.0 | 9.0 | 0.00 | 0.17 | 0.17 | 89 | 1006.4 |
| 20260507034003 | 57 | 283 | 1.0 | 9.0 | 0.00 | 0.17 | 0.17 | 88 | 1006.2 |
| 20260507033503 | 58 | 284 | 3.0 | 9.0 | 0.00 | 0.17 | 0.17 | 88 | 1006.1 |
| 20260507033003 | 58 | 286 | 3.0 | 10.0 | 0.00 | 0.17 | 0.17 | 87 | 1006.0 |
| 20260507032503 | 58 | 287 | 4.0 | 10.0 | 0.00 | 0.17 | 0.17 | 87 | 1006.1 |
| 20260507032003 | 58 | 291 | 5.0 | 13.0 | 0.00 | 0.17 | 0.17 | 87 | 1006.0 |
| 20260507031503 | 58 | 299 | 5.0 | 13.0 | 0.00 | 0.17 | 0.17 | 86 | 1005.8 |
| 20260507031024 | 59 | 309 | 4.0 | 11.0 | 0.00 | 0.17 | 0.17 | 87 | 1005.7 |
| 20260507030503 | 59 | 302 | 4.0 | 14.0 | 0.00 | 0.17 | 0.17 | 90 | 1005.4 |
| 20260507030024 | 60 | 279 | 5.0 | 14.0 | 0.00 | 0.17 | 0.17 | 91 | 1005.5 |
| 20260507025524 | 60 | 239 | 3.0 | 14.0 | 0.00 | 0.17 | 0.17 | 95 | 1005.6 |
| 20260507025003 | 60 | 175 | 1.0 | 6.0 | 0.00 | 0.17 | 0.17 | 95 | 1005.5 |
| 20260507024524 | 60 | 173 | 0.0 | 2.0 | 0.00 | 0.17 | 0.17 | 95 | 1005.5 |
| 20260507024003 | 60 | 0 | 0.0 | 0.0 | 0.00 | 0.17 | 0.17 | 95 | 1005.3 |
| 20260507023503 | 60 | 173 | 0.0 | 1.0 | 0.00 | 0.17 | 0.17 | 95 | 1005.3 |
| 20260507023003 | 60 | 171 | 1.0 | 8.0 | 0.00 | 0.17 | 0.17 | 95 | 1005.3 |
| 20260507022524 | 60 | 170 | 1.0 | 8.0 | 0.00 | 0.17 | 0.17 | 95 | 1005.4 |
| 20260507022024 | 60 | 169 | 1.0 | 5.0 | 0.00 | 0.17 | 0.17 | 94 | 1005.4 |
| 20260507021503 | 60 | 169 | 1.0 | 5.0 | 0.00 | 0.17 | 0.17 | 94 | 1005.3 |
| 20260507021003 | 60 | 169 | 0.0 | 5.0 | 0.00 | 0.17 | 0.17 | 94 | 1005.1 |
| 20260507020503 | 60 | 169 | 0.0 | 5.0 | 0.00 | 0.17 | 0.17 | 94 | 1004.9 |
| 20260507020024 | 60 | 169 | 1.0 | 5.0 | 0.00 | 0.17 | 0.17 | 94 | 1005.0 |
| 20260507015503 | 60 | 169 | 3.0 | 7.0 | 0.00 | 0.17 | 0.17 | 94 | 1005.1 |
| 20260507015003 | 60 | 169 | 3.0 | 9.0 | 0.00 | 0.17 | 0.17 | 94 | 1005.2 |
| 20260507014503 | 60 | 169 | 4.0 | 9.0 | 0.00 | 0.17 | 0.17 | 94 | 1005.0 |
| 20260507014024 | 60 | 169 | 4.0 | 9.0 | 0.00 | 0.17 | 0.17 | 94 | 1005.1 |
| 20260507013503 | 60 | 169 | 4.0 | 9.0 | 0.00 | 0.17 | 0.17 | 94 | 1005.0 |
| 20260507013003 | 60 | 170 | 4.0 | 10.0 | 0.00 | 0.17 | 0.17 | 94 | 1005.0 |
| 20260507012503 | 60 | 170 | 4.0 | 10.0 | 0.00 | 0.17 | 0.17 | 95 | 1005.0 |
| 20260507012003 | 60 | 170 | 3.0 | 9.0 | 0.00 | 0.17 | 0.17 | 95 | 1005.2 |
| 20260507011524 | 60 | 169 | 3.0 | 9.0 | 0.00 | 0.17 | 0.17 | 95 | 1005.1 |
| 20260507011003 | 60 | 168 | 4.0 | 10.0 | 0.00 | 0.17 | 0.17 | 95 | 1005.1 |
| 20260507010504 | 60 | 167 | 4.0 | 10.0 | 0.00 | 0.17 | 0.17 | 95 | 1005.2 |
| 20260507010003 | 60 | 167 | 3.0 | 6.0 | 0.00 | 0.17 | 0.17 | 95 | 1005.2 |
| 20260507005504 | 60 | 167 | 4.0 | 11.0 | 0.00 | 0.17 | 0.17 | 95 | 1005.2 |
| 20260507005004 | 60 | 167 | 4.0 | 11.0 | 0.00 | 0.17 | 0.17 | 95 | 1005.2 |
| 20260507004503 | 60 | 170 | 4.0 | 11.0 | 0.00 | 0.17 | 0.17 | 95 | 1005.1 |
| 20260507004003 | 60 | 171 | 4.0 | 11.0 | 0.00 | 0.17 | 0.17 | 95 | 1005.0 |
| 20260507003524 | 60 | 171 | 4.0 | 12.0 | 0.00 | 0.17 | 0.17 | 95 | 1005.0 |
| 20260507003004 | 60 | 170 | 5.0 | 12.0 | 0.00 | 0.17 | 0.17 | 95 | 1005.0 |
| 20260507002503 | 60 | 170 | 5.0 | 11.0 | 0.00 | 0.17 | 0.17 | 95 | 1004.9 |
| 20260507002003 | 60 | 171 | 4.0 | 12.0 | 0.00 | 0.17 | 0.17 | 95 | 1004.8 |
| 20260507001524 | 60 | 170 | 4.0 | 12.0 | 0.00 | 0.17 | 0.17 | 95 | 1004.9 |
| 20260507001003 | 60 | 169 | 5.0 | 12.0 | 0.00 | 0.17 | 0.17 | 95 | 1004.9 |
| 20260507000504 | 60 | 167 | 5.0 | 12.0 | 0.01 | 0.17 | 0.17 | 95 | 1005.0 |
| 20260507000004 | 60 | 166 | 5.0 | 11.0 | 0.02 | 0.17 | 0.17 | 95 | 1005.0 |
| 20260506235503 | 60 | 166 | 5.0 | 10.0 | 0.02 | 0.17 | 0.17 | 95 | 1004.8 |
| 20260506235003 | 60 | 165 | 4.0 | 10.0 | 0.03 | 0.17 | 0.17 | 95 | 1004.8 |
| 20260506234503 | 60 | 166 | 5.0 | 14.0 | 0.03 | 0.17 | 0.17 | 95 | 1004.9 |
| 20260506234024 | 60 | 168 | 6.0 | 14.0 | 0.04 | 0.17 | 0.17 | 95 | 1004.7 |
| 20260506233503 | 60 | 168 | 6.0 | 12.0 | 0.04 | 0.17 | 0.17 | 95 | 1004.7 |
| 20260506233003 | 60 | 168 | 4.0 | 11.0 | 0.04 | 0.17 | 0.17 | 95 | 1004.7 |
| 20260506232503 | 60 | 168 | 3.0 | 10.0 | 0.05 | 0.17 | 0.17 | 95 | 1004.8 |
| 20260506232003 | 60 | 167 | 4.0 | 10.0 | 0.05 | 0.17 | 0.17 | 95 | 1004.8 |
| 20260506231503 | 60 | 166 | 4.0 | 10.0 | 0.05 | 0.17 | 0.17 | 95 | 1004.7 |
| 20260506231003 | 60 | 167 | 4.0 | 10.0 | 0.05 | 0.17 | 0.17 | 95 | 1004.8 |
| 20260506230503 | 60 | 168 | 4.0 | 11.0 | 0.04 | 0.16 | 0.16 | 94 | 1004.8 |
| 20260506230003 | 60 | 168 | 3.0 | 11.0 | 0.03 | 0.15 | 0.15 | 94 | 1004.9 |
| 20260506225503 | 60 | 167 | 2.0 | 10.0 | 0.03 | 0.15 | 0.15 | 94 | 1004.9 |
| 20260506225003 | 60 | 167 | 4.0 | 11.0 | 0.02 | 0.14 | 0.14 | 94 | 1005.0 |
| 20260506224503 | 60 | 166 | 5.0 | 11.0 | 0.03 | 0.14 | 0.14 | 94 | 1005.1 |
| 20260506224003 | 60 | 168 | 5.0 | 11.0 | 0.02 | 0.13 | 0.13 | 93 | 1005.1 |
| 20260506223503 | 61 | 171 | 5.0 | 12.0 | 0.02 | 0.13 | 0.13 | 93 | 1005.1 |
| 20260506223003 | 61 | 169 | 5.0 | 12.0 | 0.02 | 0.13 | 0.13 | 93 | 1005.0 |
| 20260506222524 | 61 | 166 | 5.0 | 11.0 | 0.02 | 0.12 | 0.12 | 93 | 1005.0 |
| 20260506222003 | 61 | 165 | 5.0 | 14.0 | 0.02 | 0.12 | 0.12 | 93 | 1005.1 |
| 20260506221504 | 61 | 165 | 5.0 | 14.0 | 0.02 | 0.12 | 0.12 | 93 | 1005.1 |
| 20260506221003 | 61 | 169 | 6.0 | 12.0 | 0.02 | 0.12 | 0.12 | 93 | 1005.1 |
| 20260506220503 | 61 | 170 | 6.0 | 12.0 | 0.02 | 0.12 | 0.12 | 93 | 1005.1 |
| 20260506220024 | 61 | 169 | 4.0 | 11.0 | 0.03 | 0.12 | 0.12 | 93 | 1005.1 |
| 20260506215524 | 61 | 169 | 5.0 | 15.0 | 0.03 | 0.12 | 0.12 | 93 | 1005.1 |
| 20260506215004 | 61 | 170 | 5.0 | 15.0 | 0.03 | 0.12 | 0.12 | 93 | 1005.1 |
| 20260506214503 | 61 | 171 | 4.0 | 14.0 | 0.03 | 0.11 | 0.11 | 93 | 1005.0 |
| 20260506214024 | 61 | 169 | 5.0 | 14.0 | 0.04 | 0.11 | 0.11 | 93 | 1005.1 |
| 20260506213503 | 61 | 167 | 5.0 | 12.0 | 0.04 | 0.11 | 0.11 | 92 | 1005.0 |
| 20260506213003 | 61 | 165 | 6.0 | 16.0 | 0.04 | 0.11 | 0.11 | 92 | 1005.1 |
| 20260506212503 | 61 | 164 | 5.0 | 16.0 | 0.04 | 0.10 | 0.10 | 92 | 1005.0 |
| 20260506212003 | 62 | 164 | 5.0 | 14.0 | 0.04 | 0.10 | 0.10 | 92 | 1005.2 |
| 20260506211503 | 62 | 167 | 6.0 | 17.0 | 0.04 | 0.10 | 0.10 | 92 | 1005.4 |
| 20260506211003 | 62 | 167 | 7.0 | 17.0 | 0.05 | 0.10 | 0.10 | 92 | 1005.4 |
| 20260506210503 | 62 | 165 | 7.0 | 17.0 | 0.05 | 0.10 | 0.10 | 92 | 1005.5 |
| 20260506210024 | 62 | 166 | 7.0 | 17.0 | 0.04 | 0.09 | 0.09 | 92 | 1005.5 |
| 20260506205503 | 62 | 172 | 6.0 | 17.0 | 0.04 | 0.09 | 0.09 | 92 | 1005.5 |
| 20260506205003 | 62 | 177 | 4.0 | 12.0 | 0.04 | 0.09 | 0.09 | 92 | 1005.7 |
| 20260506204524 | 62 | 170 | 5.0 | 16.0 | 0.03 | 0.08 | 0.08 | 91 | 1005.6 |
| 20260506204025 | 62 | 164 | 6.0 | 16.0 | 0.02 | 0.07 | 0.07 | 91 | 1005.9 |
| 20260506203503 | 62 | 164 | 5.0 | 15.0 | 0.02 | 0.07 | 0.07 | 91 | 1005.9 |
| 20260506203004 | 62 | 166 | 6.0 | 15.0 | 0.02 | 0.07 | 0.07 | 91 | 1005.9 |
| 20260506202504 | 63 | 169 | 6.0 | 15.0 | 0.01 | 0.06 | 0.06 | 90 | 1005.8 |
| 20260506202004 | 63 | 172 | 6.0 | 14.0 | 0.01 | 0.06 | 0.06 | 89 | 1005.8 |
| 20260506201524 | 63 | 181 | 6.0 | 14.0 | 0.01 | 0.06 | 0.06 | 89 | 1005.8 |
| 20260506201004 | 63 | 189 | 6.0 | 13.0 | 0.00 | 0.05 | 0.05 | 88 | 1005.9 |
| 20260506200504 | 64 | 184 | 5.0 | 13.0 | 0.01 | 0.05 | 0.05 | 87 | 1005.9 |
| 20260506200024 | 64 | 181 | 6.0 | 15.0 | 0.01 | 0.05 | 0.05 | 86 | 1005.9 |
| 20260506195503 | 64 | 183 | 6.0 | 15.0 | 0.02 | 0.05 | 0.05 | 86 | 1006.0 |
| 20260506195025 | 64 | 185 | 4.0 | 11.0 | 0.02 | 0.05 | 0.05 | 87 | 1005.9 |
| 20260506194503 | 64 | 183 | 4.0 | 10.0 | 0.02 | 0.05 | 0.05 | 87 | 1006.0 |
| 20260506194003 | 64 | 171 | 6.0 | 19.0 | 0.03 | 0.05 | 0.05 | 86 | 1005.9 |
| 20260506193503 | 64 | 168 | 7.0 | 19.0 | 0.03 | 0.05 | 0.05 | 86 | 1005.8 |
| 20260506193003 | 64 | 171 | 6.0 | 16.0 | 0.04 | 0.05 | 0.05 | 87 | 1005.8 |
| 20260506192504 | 64 | 179 | 3.0 | 12.0 | 0.04 | 0.05 | 0.05 | 88 | 1005.9 |
| 20260506192025 | 64 | 205 | 1.0 | 8.0 | 0.04 | 0.05 | 0.05 | 89 | 1005.9 |
| 20260506191503 | 64 | 216 | 1.0 | 7.0 | 0.04 | 0.05 | 0.05 | 89 | 1005.9 |
| 20260506191025 | 64 | 231 | 0.0 | 3.0 | 0.05 | 0.05 | 0.05 | 89 | 1005.7 |
| 20260506190503 | 64 | 232 | 0.0 | 6.0 | 0.04 | 0.04 | 0.04 | 88 | 1005.7 |
| 20260506190004 | 64 | 233 | 1.0 | 8.0 | 0.04 | 0.04 | 0.04 | 88 | 1005.9 |
| 20260506185524 | 64 | 236 | 2.0 | 8.0 | 0.03 | 0.03 | 0.03 | 87 | 1006.1 |
| 20260506185003 | 65 | 242 | 3.0 | 8.0 | 0.03 | 0.03 | 0.03 | 86 | 1006.1 |
| 20260506184503 | 65 | 246 | 2.0 | 8.0 | 0.03 | 0.03 | 0.03 | 86 | 1006.1 |
| 20260506184003 | 65 | 248 | 2.0 | 7.0 | 0.02 | 0.02 | 0.02 | 84 | 1006.4 |
| 20260506183503 | 65 | 247 | 2.0 | 7.0 | 0.02 | 0.02 | 0.02 | 84 | 1006.2 |
| 20260506183004 | 66 | 262 | 3.0 | 10.0 | 0.01 | 0.01 | 0.01 | 82 | 1006.5 |
| 20260506182504 | 66 | 276 | 3.0 | 10.0 | 0.01 | 0.01 | 0.01 | 81 | 1006.5 |